Location: Usti nad Orlici
(49.9830°N, 16.4000°E)
Time: 02:03:32
(UTC+02:00)

ISS - Pass Details

Date: 29 March 2019
Orbit: 408 x 410 km, 51.6° (Epoch: 26 April)

Event Time Altitude Azimuth Distance (km) Brightness Sun altitude
Rises 20:03:58 0° 277° (W) 2,337 1.4 -16.6°
Reaches altitude 10° 20:06:04 10° 281° (W) 1,475 0.2 -16.9°
Maximum altitude 20:09:21 64° 3° (N) 459 -3.6 -17.4°
Enters shadow 20:10:13 43° 66° (ENE) 591 -3.3 -17.5°
